Location: Indian Hills
(32.9760°N, 85.9450°W)
Time: 18:03:53
(UTC+00:00)

Lacrosse 5 - Pass Details

Date: 09 December 2019
Orbit: 717 x 722 km, 57.0° (Epoch: 10 January)

Event Time Altitude Azimuth Distance (km) Brightness Sun altitude
Exits shadow 10:49:21 38° 235° (SW) 1,087 2.4 -21.5°
Drops below altitude 10° 10:53:54 10° 171° (S) 2,192 4.6 -20.6°
Sets 10:56:24 0° 163° (SSE) 3,109 5.6 -20.1°
